星链-4655 (STARLINK-4655 )

导读 | 豆包AI

STARLINK-4655是美国SpaceX公司星链(Starlink)星座的组网卫星,于2022年8月28日由猎鹰9火箭发射,归属于星链Group 4-16任务组。作为近地轨道互联网卫星,它质量约297kg,运行在约550公里高度轨道,为全球尤其是偏远地区提供高速低延迟宽带互联网服务,助力星链全球互联网络的构建。

Basic Information
目录编号:
53613
目录名称:
STARLINK-4655
国际标识:
2022-104AB
轨道中心:
EARTH
卫星名称:
星链-4655
卫星全名:
星链-4655 (STARLINK-4655 )
卫星状态:
在轨 (已飞行1295 天)
发射日期:
2022-08-28 UTC
国别 :
美国 (US)
星等 :
--
Orbit Information
数据来源 国际轨道数据 AOE轨道数据
星历时间 2026-03-15T03:05:23+0800
12小时前
查看轨道信息
2026-03-12T05:00:00+0800
3天前
查看轨道信息
半长轴 6917.878km 6917.868km
偏心率 0.0000999 0.0000964
轨道倾角 53.217° 53.218°
近地点辐角 101.177° 91.919°
升交点赤经 211.353° 224.465°
平近点角 258.934° 236.486°
近地点 539.049km 539.064km
远地点 540.433km 540.398km
周期 95.438分钟 95.437分钟
每日圈数 15.088408 15.088442
Detailed Information
固有亮度:
5
最大亮度:
2.5
卫星平台:
Starlink v1.5
覆盖范围:
全球
运营商:
太空探索技术公司
运营商所在国:
美国
制造商(研发单位):
太空探索技术公司
制造商所在国:
美国
使用方式:
暂无
Satellite Introduction
星链(Starlink)计划是由太空探索技术公司(SpaceX)提出的一个巨型低轨卫星互联网星座项目,计划在2019年至2024年间在太空搭建由约1.2万颗卫星组成的“星链”网络,其中1584颗将部署在地球上空550千米处的近地轨道,并从2020年开始工作。该卫星仍在工作。
2D Orbit Map
3D Orbit Map
Orbit Altitude Analysis Chart
Orbit Inclination Analysis Chart
Orbit Comprehensive Analysis Chart
View Comprehensive Chart